Regional Weather Roundup
Issued by NWS

Home | Current Version | Previous Version | Text Only | Print | Product List | Glossary On
Versions: 1 2 3 4 5 6 7 8 9 10 11 12 13 14 15 16 17 18 19 20 21 22 23 24 25 26 27 28 29 30 31 32 33 34 35 36 37 38 39 40 41 42 43 44 45 46 47 48 49 50
000
ASUS45 KBOU 152110
RWRCO

WEATHER ROUNDUP FOR COLORADO
NATIONAL WEATHER SERVICE DENVER/BOULDER CO
300 PM MDT SAT JUN 15 2019

NOTE: "FAIR" INDICATES FEW OR NO CLOUDS BELOW 12000 FEET WITH NO
SIGNIFICANT WEATHER AND/OR OBSTRUCTIONS TO VISIBILITY.

COZ001>005-013-030-031-152200-
...NORTHWEST COLORADO...

CITY           SKY/WX    TMP DP  RH WIND       PRES   REMARKS
CRAIG          FAIR      78  42  27 MISG      30.08S
HAYDEN         FAIR      67  47  48 N6        30.13R
MEEKER         FAIR      77  40  26 NE7G17    30.07F
RANGELY        FAIR      80  31  17 SW6       30.01F
RABBIT EARS PA NOT AVBL
STEAMBOAT SPGS FAIR      64  43  47 N13       30.14R
WALDEN         FAIR      64  32  29 NW7       30.21S
$$

COZ006>008-011-152200-
...WEST CENTRAL VALLEYS...

CITY           SKY/WX    TMP DP  RH WIND       PRES   REMARKS
GRAND JUNCTION FAIR      80  40  23 NW8       29.96F
MONTROSE       FAIR      80  36  20 N9        30.02F
EAGLE          CLOUDY    76  35  22 N7        30.07F
RIFLE          FAIR      84  35  17 VRB5      29.99F
DELTA          FAIR      88  30  12 SW16G23   29.96F
NUCLA          FAIR      82  28  14 NW9       30.04F
$$

COZ017>023-064>068-152200-
...SOUTHWEST COLORADO...

CITY           SKY/WX    TMP DP  RH WIND       PRES   REMARKS
DURANGO        LGT RAIN  65  44  46 N17G24    30.07R
CORTEZ         PTSUNNY   79  40  24 N10G18    30.01S THUNDER
PAGOSA SPRINGS FAIR      73  32  22 NW10      30.14S
TELLURIDE      PTSUNNY   50  43  76 SE7       30.30R
WOLF CREEK PAS FAIR      43  30  61 NW3       30.46S
$$

COZ009-010-012-014-032>034-037-058>063-152200-
...CENTRAL COLORADO...

CITY           SKY/WX    TMP DP  RH WIND       PRES   REMARKS
ASPEN          FAIR      73  32  22 N14       30.12F
BUENA VISTA    FAIR      57  43  59 SE6       30.21S HAZE
COPPER MTN     CLOUDY    50  32  50 W10       30.42F
BERTHOUD PASS  FAIR      37  28  70 SE12      30.46F
COTTONWOOD PAS RAIN      50  41  71 SE14      30.30F
GUNNISON       PTSUNNY   69  38  32 SW8       30.12F
GRANBY         MOCLDY    65  35  32 CALM      30.18F
KREMMLING      FAIR      70  36  28 NW3       30.14F THUNDER
LEADVILLE      PTSUNNY   59  31  34 SW12G18   30.26S
MONARCH PASS   TSTM      45  32  61 MISG      30.54R
SALIDA         CLOUDY    61  49  64 NW3       30.27R
SUNLIGHT       FAIR      52  30  43 NW6       30.38S
WILKERSON PASS CLOUDY    37  36  93 SE3       30.44R
$$

COZ069>075-152200-
...SAN LUIS VALLEY/SANGRE DE CRISTO MOUNTAINS...

CITY           SKY/WX    TMP DP  RH WIND       PRES   REMARKS
ALAMOSA        FAIR      75  25  15 VRB5      30.09F
DEL NORTE      PTSUNNY   67  30  25 NW14G24   30.16F
LA VETA PASS   NOT AVBL
SAGUACHE       CLOUDY    57  37  47 CALM      30.21R
$$

COZ035-036-038>040-152200-
...NORTHERN COLORADO FRONT RANGE...

CITY           SKY/WX    TMP DP  RH WIND       PRES   REMARKS
DENVER INTL AP PTSUNNY   77  41  27 N6        30.05F
AURORA         PTSUNNY   75  42  31 N7        30.07S THUNDER
FRONT RANGE AP PTSUNNY   79  41  25 NE9       30.06F
ERIE MUNI ARPT NOT AVBL
BOULDER MUN AP FAIR      79  37  22 NE5       30.04F
CENTENNIAL     TSTM      73  43  33 NW12      30.08S
BROOMFIELD     PTSUNNY   73  41  31 S10       30.08S
FORT COLLINS     N/A     75  45  34 W7        30.03F
LONGMONT       FAIR      83  42  22 SE6       30.04F
$$

COZ041-046-047-076>085-087-088-152200-
...PIKES PEAK/PALMER DIVIDE AND SOUTHERN FOOTHILLS...

CITY           SKY/WX    TMP DP  RH WIND       PRES   REMARKS
COLO. SPRINGS  TSTM      58  46  64 NW15G28   30.13S
A. F. ACADEMY  LGT RAIN  54  49  82 E7        30.16R
SCHRIEVER AFB  NOT AVBL
CHEYENNE MTN   NOT AVBL
ELLICOTT         N/A    N/A N/A N/A N14       30.10R THUNDER
FALCON         LGT RAIN  53  45  74 N17G30    30.20R
FORT CARSON    NOT AVBL
LIMON          FAIR      74  45  35 CALM      30.05F
MONUMENT HILL  CLOUDY    54  41  62 S13       30.19F
CANON CITY     CLOUDY    72  46  40 N13G22    30.07R THUNDER
WALSENBURG     NOT AVBL
TRINIDAD       FAIR      75  43  31 CALM      30.05R
$$

COZ042>045-048>051-090-091-152200-
...NORTHEAST COLORADO...

CITY           SKY/WX    TMP DP  RH WIND       PRES   REMARKS
GREELEY ARPT   FAIR      79  44  28 VRB7      30.02F
AKRON          FAIR      78  50  37 NE9       30.02S
BURLINGTON     FAIR      83  49  30 N16G23    29.96F
WRAY           FAIR      82  46  28 NE10G16   29.96S
YUMA           FAIR      77   3   6 NE9G17    29.98F
STERLING       FAIR      79  52  38 E7        29.97F
HOLYOKE        FAIR      84  50  30 NE7G17    29.96F
FORT MORGAN    FAIR      81  44  26 N5        30.02S
$$

COZ086-089-092>099-152200-
...SOUTHEAST COLORADO...

CITY           SKY/WX    TMP DP  RH WIND       PRES   REMARKS
PUEBLO         FAIR      75  48  38 N32G40    29.99R
LA JUNTA       FAIR      88  43  20 NE13G22   29.93F
LAMAR          FAIR      86  47  25 NE9G24    29.90F
SPRINGFIELD      N/A     82  52  35 NE12G21   29.95F
$$




USA.gov is the U.S. government's official web portal to all federal, state and local government web resources and services.